2023/02/27 00:00:00,50.0,-3.3
2023/02/27 00:10:00,50.0,-3.4
2023/02/27 00:20:00,50.0,-3.8
2023/02/27 00:30:00,50.0,-3.8
2023/02/27 00:40:00,50.0,-3.9
2023/02/27 00:50:00,50.0,-3.6
2023/02/27 01:00:00,50.0,-4.0
2023/02/27 01:10:00,50.0,-3.6
2023/02/27 01:20:00,50.0,-3.6
2023/02/27 01:30:00,50.0,-3.8
2023/02/27 01:40:00,49.9,-3.8
2023/02/27 01:50:00,50.0,-4.2
2023/02/27 02:00:00,50.0,-4.0
2023/02/27 02:10:00,50.0,-4.2
2023/02/27 02:20:00,50.1,-4.3
2023/02/27 02:30:00,50.0,-4.3
2023/02/27 02:40:00,50.0,-4.5
2023/02/27 02:50:00,50.0,-4.3
2023/02/27 03:00:00,50.0,-4.8
2023/02/27 03:10:00,50.0,-4.4
2023/02/27 03:20:00,50.0,-4.7
2023/02/27 03:30:00,50.0,-4.6
2023/02/27 03:40:00,50.0,-4.8
2023/02/27 03:50:00,50.0,-4.6
2023/02/27 04:00:00,50.0,-4.6
2023/02/27 04:10:00,50.0,-4.5
2023/02/27 04:20:00,50.0,-4.4
2023/02/27 04:30:00,50.0,-4.8
2023/02/27 04:40:00,50.0,-4.8
2023/02/27 04:50:00,50.0,-4.9
2023/02/27 05:00:00,50.0,-4.8
2023/02/27 05:10:00,49.9,-4.8
2023/02/27 05:20:00,49.9,-4.9
2023/02/27 05:30:00,49.9,-4.8
2023/02/27 05:40:00,49.9,-4.8
2023/02/27 05:50:00,49.9,-4.9
2023/02/27 06:00:00,49.9,-4.8
2023/02/27 06:10:00,49.9,-5.2
2023/02/27 06:20:00,49.9,-5.0
2023/02/27 06:30:00,49.9,-5.2
2023/02/27 06:40:00,49.9,-5.1
2023/02/27 06:50:00,49.9,-4.9
2023/02/27 07:00:00,49.9,-4.8
2023/02/27 07:10:00,49.9,-4.8
2023/02/27 07:20:00,49.8,-4.9
2023/02/27 07:30:00,49.9,-4.6
2023/02/27 07:40:00,49.9,-4.4
2023/02/27 07:50:00,49.9,-4.5
2023/02/27 08:00:00,49.8,-4.2
2023/02/27 08:10:00,49.8,-3.7
2023/02/27 08:20:00,49.8, 3.2
2023/02/27 08:30:00,49.7, 7.0
2023/02/27 08:40:00,49.7, 6.9
2023/02/27 08:50:00,49.7, 8.2
2023/02/27 09:00:00,49.6, 8.1
2023/02/27 09:10:00,49.5,10.2
2023/02/27 09:20:00,49.5,11.1
2023/02/27 09:30:00,49.4,13.4
2023/02/27 09:40:00,49.5,13.7
2023/02/27 09:50:00,49.4,15.9
2023/02/27 10:00:00,49.4,14.8
2023/02/27 10:10:00,49.4,13.2
2023/02/27 10:20:00,49.4,11.3
2023/02/27 10:30:00,49.3, 9.6
2023/02/27 10:40:00,49.2, 9.0
2023/02/27 10:50:00,49.1, 9.8
2023/02/27 11:00:00,48.8, 9.8
2023/02/27 11:10:00,48.7,10.4
2023/02/27 11:20:00,48.4,11.0
2023/02/27 11:30:00,47.9,10.8
2023/02/27 11:40:00,47.7,10.9
2023/02/27 11:50:00,47.5,11.0
2023/02/27 12:00:00,47.4,10.9
2023/02/27 12:10:00,47.2,11.1
2023/02/27 12:20:00,46.9,11.4
2023/02/27 12:30:00,46.7,11.5
2023/02/27 12:40:00,46.5,11.6
2023/02/27 12:50:00,46.3,11.6
2023/02/27 13:00:00,46.2,12.0
2023/02/27 13:10:00,45.9,12.1
2023/02/27 13:20:00,45.8,12.1
2023/02/27 13:30:00,45.7,11.7
2023/02/27 13:40:00,45.3,11.9
2023/02/27 13:50:00,45.0,11.5
2023/02/27 14:00:00,45.0,11.4
2023/02/27 14:10:00,45.1,11.7
2023/02/27 14:20:00,45.3,11.3
2023/02/27 14:30:00,45.3,11.3
2023/02/27 14:40:00,45.0,11.1
2023/02/27 14:50:00,44.7,10.7
2023/02/27 15:00:00,44.6,10.6
2023/02/27 15:10:00,44.7, 8.7
2023/02/27 15:20:00,44.6, 8.8
2023/02/27 15:30:00,44.5, 7.9
2023/02/27 15:40:00,44.4, 7.4
2023/02/27 15:50:00,44.3, 7.2
2023/02/27 16:00:00,44.2, 6.1
2023/02/27 16:10:00,44.0, 5.7
2023/02/27 16:20:00,44.1, 5.5
2023/02/27 16:30:00,44.1, 4.5
2023/02/27 16:40:00,44.2, 4.2
2023/02/27 16:50:00,44.3, 4.3
2023/02/27 17:00:00,44.4, 2.4
2023/02/27 17:10:00,44.3, 3.5
2023/02/27 17:20:00,44.4, 2.7
2023/02/27 17:30:00,44.4, 2.4
2023/02/27 17:40:00,44.5, 1.8
2023/02/27 17:50:00,44.4, 1.1
2023/02/27 18:00:00,44.4, 1.1
2023/02/27 18:10:00,44.4, 0.8
2023/02/27 18:20:00,44.4, 0.4
2023/02/27 18:30:00,44.4, 0.5
2023/02/27 18:40:00,44.4, 0.7
2023/02/27 18:50:00,44.3, 0.4
2023/02/27 19:00:00,44.4, 0.5
2023/02/27 19:10:00,44.4,-0.2
2023/02/27 19:20:00,44.4,-0.4
2023/02/27 19:30:00,44.4, 0.1
2023/02/27 19:40:00,44.4,-0.1
2023/02/27 19:50:00,44.4, 0.0
2023/02/27 20:00:00,44.4, 0.3
2023/02/27 20:10:00,44.4, 0.3
2023/02/27 20:20:00,44.4,-0.3
2023/02/27 20:30:00,44.4, 0.1
2023/02/27 20:40:00,44.4,-0.1
2023/02/27 20:50:00,44.4, 0.3
2023/02/27 21:00:00,44.4, 0.0
2023/02/27 21:10:00,44.4,-0.5
2023/02/27 21:20:00,44.4,-0.5
2023/02/27 21:30:00,44.5,-0.3
2023/02/27 21:40:00,44.5,-0.7
2023/02/27 21:50:00,44.5,-0.5
2023/02/27 22:00:00,44.5,-0.4
2023/02/27 22:10:00,44.4,-0.8
2023/02/27 22:20:00,44.4,-0.4
2023/02/27 22:30:00,44.4,-0.7
2023/02/27 22:40:00,44.4,-0.2
2023/02/27 22:50:00,44.4,-0.5
2023/02/27 23:00:00,44.4,-0.9
2023/02/27 23:10:00,44.4, 0.0
2023/02/27 23:20:00,44.4,-0.9
2023/02/27 23:30:00,44.4,-0.4
2023/02/27 23:40:00,44.4,-0.8
2023/02/27 23:50:00,44.4,-1.2
